Skip Page Navigation
NASA JPL Caltech
NASA Logo - Jet Propulsion Laboratory + View the NASA Portal
+ Center for Near-Earth Object Studies
JPL Home Earth Solar System Stars & Galaxies Technology
JPL Solar System Dynamics
BODIES ORBITS EPHEMERIDES TOOLS PHYSICAL DATA DISCOVERY FAQ SITE MAP
IMPORTANT: The SSD Announcement email list is now available. Major changes are coming in the near future, including possible hostname and/or URL changes. To be notified of such changes, subscribe to this email list.

Please visit this page for more details.


JPL Small-Body Database Browser
Search: [ help ]  
324750 (2007 FR32)
Classification: Main-belt Asteroid          SPK-ID: 2324750
Ephemeris | Orbit Diagram | Orbital Elements | Mission Design | Physical Parameters | Discovery Circumstances | Close-Approach Data ]

[ show orbit diagram ]
Orbital Elements at Epoch 2459000.5 (2020-May-31.0) TDB
Reference: JPL 10 (heliocentric ecliptic J2000)
 Element Value Uncertainty (1-sigma)   Units 
e .1542238528845619 8.1667e-08  
a 3.110387300203516 4.9065e-08 au
q 2.63069138680292 2.6142e-07 au
i 3.576989363751649 8.7925e-06 deg
node 174.0421165481588 0.00013294 deg
peri 55.10779297134446 0.00013535 deg
M 128.6172930287815 2.9218e-05 deg
tp 2458284.658296369217
(2018-Jun-15.15829637)
0.0001555 TDB
period 2003.642023856108
5.49
4.741e-05
1.298e-07
d
yr
n .1796728136631724 4.2514e-09 deg/d
Q 3.590083213604113 5.6632e-08 au
  Orbit Determination Parameters
   # obs. used (total)      99  
   data-arc span      5341 days (14.62 yr)  
   first obs. used      2003-09-29  
   last obs. used      2018-05-14  
   planetary ephem.      DE431  
   SB-pert. ephem.      SB431-N16  
   condition code      0  
   norm. resid. RMS      .60041  
   source      ORB  
   producer      Otto Matic  
   solution date      2019-Jul-14 09:10:26  

Additional Information
 Earth MOID = 1.62283 au 
 Jupiter MOID = 1.40179 au 
 T_jup = 3.198 
[ hide covariance matrix ]
Orbital Elements at Epoch 2456890.5 (2014-Aug-21.0) TDB
Reference: JPL 10 (heliocentric ecliptic J2000)
 Element Value Uncertainty (1-sigma)   Units 
e .1534793548379196 8.1708e-08  
q 2.635069708683954 2.6201e-07 au
tp 2456283.356081715743
(2012-Dec-21.85608172)
0.00014664 TDB
node 174.093450593434 0.00013281 deg
peri 55.86242242047929 0.00013526 deg
i 3.577188430169248 8.7964e-06 deg
  Orbit Determination Parameters
   # obs. used (total)      99  
   data-arc span      5341 days (14.62 yr)  
   first obs. used      2003-09-29  
   last obs. used      2018-05-14  
   planetary ephem.      DE431  
   SB-pert. ephem.      SB431-N16  
   condition code      0  
   norm. resid. RMS      .60041  
   source      ORB  
   producer      Otto Matic  
   solution date      2019-Jul-14 09:10:26  

Additional Information
 Jupiter MOID = 1.40179 au 
 T_jup = 3.198 
Orbit Covariance (6×6)
  e q tp node peri i
e 6.676154416649728E-15 -2.113621382075984E-14 -1.685081825356832E-12 2.555464421454906E-14 -2.060328969255894E-13 -2.119775070071408E-17
q -2.113621382075984E-14 6.864853773019694E-14 5.630422599907777E-12 -7.361989364446727E-14 8.009791867819261E-13 1.488576418001195E-15
tp -1.685081825356832E-12 5.630422599907777E-12 2.150443412701684E-8 1.796855083655755E-11 3.828602196706466E-9 4.232129318157937E-12
node 2.555464421454906E-14 -7.361989364446727E-14 1.796855083655755E-11 1.763949364925271E-8 -1.760071271935618E-8 1.18371518991618E-10
peri -2.060328969255894E-13 8.009791867819261E-13 3.828602196706466E-9 -1.760071271935618E-8 1.829485124586081E-8 -1.173169695807625E-10
i -2.119775070071408E-17 1.488576418001195E-15 4.232129318157937E-12 1.18371518991618E-10 -1.173169695807625E-10 7.737641805910427E-11

Ephemeris | Orbit Diagram | Orbital Elements | Mission Design | Physical Parameters | Discovery Circumstances | Close-Approach Data ]

Physical Parameter Table
Parameter Symbol Value Units Sigma Reference Notes
absolute magnitude H 16.4   n/a MPO450272  

324750 (2007 FR32)          Discovered 2007-Mar-20 by Spacewatch at Kitt Peak
Reference: 20120406/Numbers.arcLast Updated: 2012-04-09

[ show close-approach data ]
Ephemeris | Orbit Diagram | Orbital Elements | Mission Design | Physical Parameters | Discovery Circumstances | Close-Approach Data ]
ABOUT SSD CREDITS/AWARDS PRIVACY/COPYRIGHT GLOSSARY LINKS
FirstGov 2020-May-27 21:56 UT
(server date/time)  
NASA Home Page
Site Manager:   Ryan S. Park
Webmaster  Alan B. Chamberlin